GFSWCAN_2pvu_pres_294.txt.gz
Presure
169 217 223 204 212 204 234 237 241 226 237 232 246 230 207 351 265 267 311 343 361 376 275 287 323 306 288 271 264 243 224 227 230 233 233 243 340 332 320 305 301 306 307 311 358 374 382 375 371 360 371 382 382 369
230 263 255 251 134 241 197 222 222 225 236 227 218 304 347 354 334 283 277 335 291 345 342 287 266 264 254 247 253 223 233 296 337 340 320 298 297 309 317 345 392 388 379 375 373 365 371 364 362 348 361 378 370 364
270 224 248 229 223 192 148 229 208 230 305 288 360 367 309 322 273 288 319 271 323 333 275 259 245 245 241 230 239 345 336 326 297 301 337 392 456 450 445 431 413 403 390 394 366 364 354 344 360 361 359 358 348 349
221 216 234 185 228 227 231 231 314 377 318 251 316 317 393 365 369 299 261 291 281 273 253 248 232 235 287 335 332 312 301 359 419 432 426 438 426 424 423 416 416 376 402 397 368 349 353 355 374 377 362 359 346 332
237 224 221 234 230 275 280 315 291 299 298 325 331 329 303 290 269 257 283 276 260 245 236 243 318 331 321 305 297 430 430 427 425 428 422 383 369 401 371 344 337 333 333 333 336 343 356 365 370 358 339 323 310 288
223 230 230 283 321 235 338 312 280 384 312 289 362 367 274 328 306 285 261 253 240 242 345 330 318 301 289 418 420 428 428 416 397 385 374 354 341 340 326 326 319 320 329 338 347 356 368 340 325 321 308 285 277 271
255 283 294 307 274 296 282 297 368 349 331 322 319 301 273 273 255 246 234 239 257 330 314 301 285 424 441 414 415 382 368 361 358 339 334 325 329 324 321 327 341 347 352 361 363 337 327 303 285 275 269 265 257 258
305 268 284 282 284 274 265 282 298 300 293 281 275 259 249 247 234 236 252 328 316 302 291 294 392 401 388 366 360 355 341 338 330 324 320 322 323 329 322 313 316 318 324 325 317 293 281 277 261 261 262 259 257 255
299 278 256 281 282 258 288 278 277 278 278 263 248 243 246 236 240 316 315 303 295 282 378 381 378 366 360 357 343 332 332 327 315 310 305 320 298 295 291 292 296 294 296 286 279 271 264 261 261 259 251 247 247 244
272 249 256 253 306 291 274 266 254 247 246 239 243 239 236 248 329 309 293 285 279 291 381 371 356 350 337 336 327 337 310 302 302 305 312 293 288 288 283 279 265 269 260 258 258 259 255 250 247 247 243 235 237 246
290 279 268 265 261 257 259 242 237 235 233 236 235 245 243 321 303 291 281 277 318 382 372 338 337 323 337 337 324 303 305 297 300 305 286 281 278 266 268 258 260 258 255 249 252 249 248 246 237 235 240 246 251 262
258 258 257 251 250 253 250 238 231 235 247 247 279 320 316 298 288 276 275 404 382 346 343 335 336 329 327 303 299 299 295 297 303 282 268 267 270 257 246 254 256 250 248 245 248 244 233 237 246 245 266 261 252 259
260 255 246 242 244 246 251 244 239 245 337 328 317 309 296 283 272 270 391 367 363 350 335 329 317 330 302 294 291 286 292 294 278 264 270 261 254 246 255 252 246 247 239 248 236 250 247 247 259 253 252 263 246 244
242 255 257 255 245 244 246 240 369 336 326 312 305 291 279 272 274 394 385 339 326 312 335 327 315 309 295 289 284 285 287 274 262 268 259 257 254 254 249 250 237 247 242 246 245 247 249 268 254 256 260 248 247 257
392 391 389 396 397 394 378 333 326 315 307 300 288 276 270 275 304 386 351 346 334 336 326 313 327 292 291 277 280 276 286 258 260 255 253 254 245 249 247 248 243 245 246 240 250 263 265 255 258 259 250 251 256 250
371 387 390 360 341 329 324 319 311 304 293 281 276 272 276 298 388 362 341 339 342 331 314 315 307 293 282 280 277 270 280 268 258 261 256 251 250 254 246 252 239 246 250 268 263 249 255 265 255 252 249 252 248 254
329 327 326 326 324 319 312 306 293 282 277 274 270 275 296 383 365 348 345 359 338 312 311 318 297 292 283 273 275 262 267 266 269 267 255 255 249 247 248 252 261 272 260 249 254 258 266 249 256 248 246 247 249 260
307 307 311 309 304 299 288 277 275 271 272 270 275 295 380 370 360 346 346 321 307 296 299 310 308 294 281 279 279 268 264 257 245 247 247 249 250 258 270 257 246 246 255 255 266 281 247 255 249 247 251 248 255 258
285 286 288 289 284 276 272 272 272 271 272 278 298 381 377 357 348 336 300 289 288 290 296 294 302 304 290 278 268 265 267 258 259 248 255 268 259 245 240 249 270 274 267 276 267 249 258 257 253 252 248 257 258 259
286 282 281 280 275 271 273 271 271 278 289 306 382 356 354 338 305 298 291 290 295 295 292 274 263 281 290 293 289 280 270 272 267 262 247 238 241 241 256 258 267 251 263 254 247 257 253 251 250 252 255 256 265 264
421 333 300 281 280 279 281 288 304 307 309 370 360 335 313 306 294 288 292 296 298 298 296 295 293 290 306 320 329 290 273 251 247 247 241 241 246 242 253 258 228 234 276 263 266 269 266 254 253 253 260 261 263 264
384 373 355 328 319 313 312 314 310 373 363 345 322 307 295 289 291 293 286 283 284 287 288 283 277 269 265 255 258 256 252 250 244 241 247 248 245 251 263 250 235 262 280 281 273 266 268 261 261 258 261 260 265 267
355 349 348 338 332 331 315 387 380 351 315 311 302 292 293 298 294 284 274 277 275 272 262 258 259 258 248 240 254 255 249 250 255 248 245 248 253 254 253 241 243 248 248 253 258 265 272 270 267 267 263 266 271 276
343 343 338 337 332 383 376 357 318 305 299 295 288 292 298 289 282 274 273 270 267 254 254 264 250 247 246 253 257 230 243 250 247 243 248 261 259 252 240 251 258 264 260 257 266 284 283 279 273 265 268 276 270 282
345 353 374 377 361 333 311 302 297 296 289 282 287 291 284 284 275 273 262 270 258 258 261 253 245 247 251 257 254 250 248 240 242 255 258 258 240 252 249 258 259 252 270 284 289 282 276 271 264 270 278 271 279 300
359 349 332 316 302 294 291 285 286 285 282 285 288 278 279 274 268 262 264 255 254 261 252 253 246 248 259 258 255 245 239 247 250 252 257 241 248 253 255 261 276 276 278 277 275 268 265 274 265 272 277 278 295 295
311 303 293 291 284 282 282 284 302 327 289 284 276 275 266 268 264 265 262 254 247 256 255 256 251 250 249 249 241 243 247 250 259 256 249 249 249 253 267 282 279 277 269 265 264 266 269 274 276 278 280 291 299 288
290 288 282 282 280 281 278 278 287 309 286 282 275 271 271 267 265 264 260 260 260 261 263 260 259 258 242 246 250 247 250 246 239 245 250 255 265 284 286 270 254 252 259 264 269 274 279 281 286 291 305 304 280 281
288 283 282 281 279 280 281 284 288 308 288 276 275 282 280 277 267 268 264 258 260 259 239 240 246 250 252 250 247 245 241 243 263 263 276 291 289 254 250 257 257 254 258 265 280 287 292 307 317 310 289 277 285 288
307 310 307 308 322 330 326 314 308 301 287 276 274 273 275 279 273 275 267 246 235 247 254 254 249 249 263 261 253 261 271 288 296 281 249 248 250 252 257 261 263 267 271 288 305 323 317 296 282 279 280 283 293 290
316 314 309 305 306 306 298 281 280 281 278 274 275 271 257 263 257 247 249 252 252 258 262 259 254 252 266 285 294 285 258 253 249 248 252 260 269 275 280 289 296 320 331 327 300 285 285 283 280 282 286 294 286 271
284 279 276 272 265 274 279 274 276 267 266 255 254 255 255 255 259 258 255 248 248 257 263 275 281 281 285 271 252 249 252 244 249 250 251 305 323 322 310 314 310 298 294 291 287 285 290 286 292 289 284 287 268 266
243 246 243 227 248 259 243 243 244 247 267 265 259 255 253 253 255 259 264 265 263 265 272 276 281 266 258 256 250 249 248 252 248 248 261 312 313 310 301 296 295 294 292 291 288 290 285 288 280 286 292 266 266 275

GFSWCAN_2pvu_pres_297.txt.gz
Presure
225 191 229 232 227 253 160 255 240 232 247 232 229 178 219 257 296 366 311 362 387 334 335 322 307 312 329 293 276 261 243 240 243 262 343 329 319 307 301 302 300 311 318 357 361 361 364 372 381 375 364 378 370 360
212 276 220 239 265 191 222 254 231 221 230 227 228 247 273 346 310 286 383 389 377 353 317 290 282 278 264 256 244 240 252 344 324 312 303 302 310 419 433 467 440 438 429 419 413 402 392 389 382 370 373 363 355 361
240 217 209 146 222 236 218 219 235 229 255 229 285 304 262 292 277 257 322 318 305 290 274 264 255 246 241 245 273 338 321 305 290 300 441 435 436 419 411 409 406 396 392 402 406 381 395 397 370 359 353 355 386 364
226 233 241 239 230 223 225 245 277 288 321 346 319 316 271 266 255 271 290 286 288 266 249 246 247 244 301 331 316 307 290 333 454 434 412 384 386 392 384 373 356 353 337 330 329 334 339 341 345 353 365 359 334 319
239 241 239 235 232 282 259 308 333 297 248 319 277 278 267 263 290 276 274 261 247 245 236 242 249 313 320 306 295 283 451 415 391 380 371 365 369 351 341 331 321 322 322 326 326 331 340 339 356 351 332 322 313 299
232 240 241 284 282 258 346 248 309 281 271 253 245 247 305 293 279 264 249 242 235 239 244 287 311 311 302 288 288 389 379 367 363 352 363 340 330 325 320 323 321 323 329 333 343 361 374 324 317 308 295 280 278 276
297 243 309 317 236 304 253 255 270 280 316 267 308 292 283 256 257 240 231 233 241 241 265 318 304 298 288 349 360 362 355 345 350 345 322 317 320 320 325 319 318 327 349 340 318 310 298 287 284 273 265 261 260 257
321 243 261 260 267 306 274 256 258 269 269 280 271 258 248 241 246 242 230 233 238 259 321 301 290 282 344 359 357 343 338 337 333 313 311 313 313 297 298 305 303 308 303 294 287 277 272 268 258 259 261 259 253 248
291 292 268 268 264 267 265 246 238 246 252 250 257 258 254 236 236 228 244 236 254 318 302 290 280 376 366 342 335 334 339 318 313 307 310 297 286 283 279 278 277 278 273 272 264 259 260 263 259 254 248 246 242 244
261 270 268 252 244 246 239 238 242 244 245 251 238 233 233 237 237 232 237 326 313 300 290 278 349 350 357 328 345 336 310 312 305 308 296 287 285 279 272 268 262 255 258 258 257 254 255 248 245 241 236 262 269 258
257 263 259 257 254 247 237 240 247 256 247 232 225 232 239 238 242 272 322 311 301 289 275 363 352 348 343 335 324 311 310 300 300 296 288 277 266 264 259 254 260 259 252 249 249 248 246 239 234 248 266 259 257 259
354 373 385 381 375 373 450 448 434 428 412 250 243 247 347 369 335 317 308 298 285 273 381 358 342 338 336 313 305 306 294 298 302 283 273 265 263 265 247 255 258 254 252 245 248 242 232 247 251 271 250 253 258 252
353 374 403 439 428 417 409 409 416 398 395 376 372 387 341 317 308 303 292 280 271 369 354 354 332 332 307 306 301 290 293 303 283 266 263 268 259 252 247 256 249 252 246 249 238 239 251 263 267 254 253 261 255 247
314 326 345 395 418 405 394 387 367 364 366 377 372 323 318 304 295 284 274 271 344 360 356 344 336 332 304 301 291 288 296 282 268 270 266 260 254 253 255 249 248 252 239 250 251 257 275 255 255 257 254 258 247 249
300 304 311 334 384 373 365 359 361 370 376 319 315 310 295 287 277 269 272 391 362 349 359 335 314 330 303 294 286 294 279 273 259 268 257 262 258 247 251 251 240 251 251 258 271 260 256 256 260 268 252 249 249 250
297 296 295 305 376 372 370 361 365 313 308 309 306 284 275 269 266 277 367 370 350 345 337 328 302 322 302 289 284 282 270 271 269 260 260 257 246 243 235 246 254 262 265 249 251 257 262 270 278 252 255 253 250 256
296 289 291 297 305 329 320 317 310 308 306 290 269 268 266 269 288 389 373 359 339 346 331 308 314 306 298 278 281 268 277 274 266 261 246 258 267 262 254 262 254 245 250 264 273 279 277 241 244 254 252 255 252 255
414 340 284 287 290 302 309 303 296 287 268 264 264 264 272 298 379 374 361 342 353 316 308 293 317 302 293 282 277 273 270 259 248 247 248 249 249 260 255 243 241 252 256 225 268 267 264 263 264 264 263 263 261 261
402 389 295 281 279 282 281 281 276 269 263 262 264 276 303 383 377 355 336 311 306 298 295 298 296 322 301 283 278 275 265 260 255 251 248 260 261 245 244 242 249 250 271 227 230 278 277 278 274 272 271 272 271 268
405 396 334 286 281 274 274 275 266 265 261 266 283 304 384 350 343 314 302 299 297 296 292 281 266 268 278 301 291 274 266 271 258 257 265 247 244 243 245 242 251 259 255 238 240 249 247 251 257 270 282 283 282 275
413 423 341 320 294 275 273 269 268 267 274 294 305 374 336 317 303 296 293 305 298 293 295 291 294 293 301 308 320 325 316 290 271 252 249 240 243 244 241 249 251 249 243 251 262 263 260 264 280 289 286 277 269 266
407 396 378 319 310 302 295 287 286 295 306 344 358 328 309 297 292 292 293 291 289 290 290 287 283 279 270 257 259 257 257 251 249 247 254 248 247 245 248 265 255 237 246 254 259 267 276 281 285 277 264 272 268 275
369 361 358 352 324 317 307 312 312 343 373 342 321 304 294 290 292 290 286 283 285 280 273 263 258 256 250 238 249 259 262 242 246 250 247 242 242 255 260 255 245 253 255 260 269 277 279 276 268 264 269 274 277 281
356 352 347 345 337 331 323 325 381 334 326 312 297 291 291 293 294 285 278 279 269 262 259 256 261 259 244 247 248 243 245 255 250 245 242 250 250 256 253 250 249 252 257 268 285 280 256 254 262 264 276 281 285 298
338 333 326 328 394 382 341 322 312 304 296 291 287 290 293 290 284 276 272 267 265 257 255 258 254 248 247 247 254 255 254 253 250 243 247 251 256 250 247 249 252 264 275 295 252 252 255 251 262 267 281 291 315 321
379 370 347 325 313 306 301 297 297 293 285 282 296 286 283 280 275 267 261 257 259 259 255 252 254 251 249 247 252 253 249 243 250 253 250 238 256 250 257 266 275 283 248 247 256 257 258 266 271 284 300 327 289 275
307 302 297 296 293 288 287 287 289 285 281 282 283 277 276 275 267 266 258 260 260 250 250 252 256 253 254 256 248 248 254 250 247 241 250 251 253 270 281 265 245 249 256 266 271 274 277 286 301 328 309 283 284 285
288 283 280 279 283 283 280 287 337 315 287 284 276 274 275 268 270 266 267 263 261 261 256 259 256 257 265 261 259 251 243 241 257 263 252 274 296 256 246 246 252 258 274 288 303 317 319 330 323 290 285 288 287 290
283 285 285 285 285 283 277 279 285 307 283 280 275 269 264 267 265 263 262 262 261 259 253 259 257 251 248 248 243 257 262 266 255 288 294 253 249 247 247 248 252 256 334 328 312 303 294 292 290 290 291 288 288 283
312 295 292 297 317 333 330 323 316 305 295 287 277 277 276 278 276 272 274 276 279 281 277 258 251 248 249 262 268 260 274 285 289 255 247 255 246 255 251 250 250 273 303 297 292 289 289 289 288 288 282 273 287 287
313 310 307 309 302 291 289 288 290 291 286 285 275 277 271 275 272 270 271 259 260 248 251 258 260 260 264 268 270 274 282 271 252 255 252 248 246 248 251 249 253 276 296 294 293 295 295 283 273 273 284 289 284 268
281 276 241 276 276 275 276 273 273 279 271 276 278 277 275 259 261 262 256 267 260 260 260 268 270 267 271 278 263 252 255 251 249 248 248 249 258 261 239 255 262 300 302 301 300 280 266 271 276 284 278 279 276 266
255 250 257 259 242 249 236 242 259 253 253 245 234 246 271 258 253 254 263 271 268 267 261 262 270 284 291 276 247 247 251 251 252 252 254 257 264 243 265 281 301 302 299 294 275 275 276 276 271 279 276 287 281 276

GFSWCAN_2pvu_pres_300.txt.gz
Presure
211 235 218 219 241 219 239 243 248 234 237 206 236 230 238 238 265 288 291 298 291 266 263 256 292 279 266 247 240 239 240 251 343 334 321 301 289 289 392 425 431 433 437 449 450 442 437 404 399 390 389 389 385 371
242 226 241 239 170 241 147 248 243 248 222 273 270 283 277 281 288 279 245 260 273 275 301 294 284 271 242 237 238 242 257 337 318 304 290 396 443 432 422 409 405 410 407 418 411 402 409 411 402 397 399 406 369 361
162 236 248 154 218 242 254 260 246 159 248 296 253 283 299 295 265 256 281 302 328 310 285 250 256 256 237 230 241 248 330 311 297 293 432 387 388 382 363 363 363 356 338 340 337 342 343 346 353 356 354 351 350 364
238 245 242 189 252 251 145 134 226 275 307 286 289 245 243 268 282 262 267 246 282 261 247 237 239 244 238 237 247 324 311 293 333 397 383 381 391 379 357 350 339 332 331 317 320 324 326 335 334 338 351 359 344 318
222 248 248 321 208 254 244 263 241 229 258 286 266 279 299 255 264 240 249 249 239 259 239 244 235 238 239 242 291 312 295 284 379 368 370 336 335 328 327 327 321 322 327 326 329 341 346 350 358 333 317 306 291 283
312 230 267 242 230 279 256 277 271 254 284 243 252 250 245 253 255 257 233 236 243 237 226 225 249 237 237 255 313 298 283 369 363 354 334 327 321 322 322 315 313 320 331 342 362 317 307 294 291 286 277 272 273 260
274 239 317 272 280 278 270 271 266 253 257 242 243 244 238 232 240 235 237 233 242 229 222 231 236 235 325 311 297 286 364 355 352 330 322 321 318 305 303 306 313 317 309 303 291 281 276 267 264 261 258 260 258 256
296 273 276 267 256 248 246 247 247 242 252 240 237 244 243 237 237 228 232 235 237 242 224 232 241 280 311 294 318 348 358 349 326 318 315 307 294 296 301 302 289 283 274 270 268 266 259 256 254 254 250 247 245 247
274 275 248 246 253 263 266 432 442 436 427 417 409 283 275 264 262 258 236 247 253 289 358 296 317 305 297 284 338 352 348 325 312 307 313 291 285 279 278 271 268 266 259 258 256 259 253 248 250 244 247 239 269 256
246 241 250 265 342 341 337 341 461 452 445 437 431 422 418 381 398 374 390 372 395 334 328 314 304 286 287 358 342 354 322 318 297 311 291 282 279 276 266 264 252 257 258 252 253 251 244 242 241 232 242 273 254 255
257 324 331 326 315 313 312 313 327 440 431 415 412 397 382 381 376 371 364 383 334 320 308 296 287 278 296 343 343 320 315 299 302 305 288 276 270 265 258 246 261 257 255 248 248 247 242 230 249 260 269 252 253 267
344 330 318 310 304 303 306 305 309 428 408 400 385 376 372 366 351 368 346 318 307 299 289 280 277 315 337 344 319 313 297 302 302 287 274 263 266 264 250 251 259 254 243 248 248 238 238 249 276 262 255 256 257 263
326 324 314 311 307 298 297 297 301 412 399 385 372 364 350 353 357 315 304 300 289 281 275 271 353 343 339 317 304 297 292 302 289 274 264 263 264 256 253 252 247 248 245 239 249 251 267 264 258 257 263 277 250 253
436 436 453 474 442 354 297 293 302 401 383 359 351 356 362 316 300 298 292 280 275 270 270 362 353 334 332 303 295 289 298 293 269 264 267 259 256 258 256 240 250 240 250 255 265 260 256 260 267 275 282 249 251 255
447 433 432 448 427 348 301 286 317 368 364 362 367 321 302 294 294 280 272 269 267 304 364 362 341 318 324 298 291 285 294 283 263 268 265 259 258 242 245 246 237 247 262 251 252 267 277 286 276 256 254 258 265 269
457 440 413 428 399 344 329 285 368 371 374 318 307 297 294 279 268 266 265 275 368 363 346 343 326 307 319 296 288 277 281 277 267 258 263 251 245 245 241 253 258 263 247 252 253 240 232 247 277 278 277 272 265 263
464 425 406 416 368 335 315 284 333 320 317 306 284 278 269 265 265 267 300 375 359 337 345 333 304 313 310 295 283 272 288 264 262 262 247 249 257 255 253 261 251 245 250 255 258 253 233 236 247 250 248 251 279 290
451 403 400 407 343 318 290 282 322 318 280 272 270 264 265 268 290 307 373 353 340 344 333 304 306 317 304 294 279 276 268 282 270 260 257 253 254 257 263 253 244 243 251 257 256 249 246 251 264 262 271 286 289 281
411 393 390 394 324 315 294 277 277 271 272 268 265 263 273 295 326 370 349 341 323 306 303 300 295 308 313 298 278 276 273 263 257 256 254 250 258 267 243 244 242 249 251 255 253 245 244 258 268 274 283 279 267 262
391 382 379 349 315 311 290 277 271 268 263 262 266 272 289 319 354 348 327 313 302 298 298 289 283 276 282 293 299 273 275 271 260 265 258 263 255 245 243 247 247 248 259 238 238 253 256 263 272 281 264 252 257 260
380 371 367 338 315 312 301 277 265 264 268 267 276 293 311 353 332 306 294 297 298 298 295 279 284 291 293 298 309 312 312 293 281 273 269 247 246 251 252 240 252 257 257 253 239 249 262 273 287 250 248 252 252 261
389 384 385 334 311 307 306 293 282 276 280 283 299 349 337 316 304 293 303 299 300 295 292 286 285 284 280 273 271 271 280 283 254 234 251 255 250 239 249 250 255 255 244 247 253 268 275 253 246 248 252 257 262 274
375 367 362 352 316 304 295 295 294 297 300 311 347 326 311 305 293 296 298 295 289 287 283 275 269 262 250 247 239 253 251 257 259 238 248 246 246 246 251 246 242 254 254 263 274 259 245 247 256 267 274 277 285 295
360 357 355 354 330 309 308 310 315 311 351 333 317 308 301 290 293 291 286 282 273 270 265 260 259 249 250 246 247 248 249 250 250 251 251 251 246 254 236 244 248 257 269 263 242 245 248 266 281 287 297 312 314 322
338 336 336 332 324 322 315 346 333 324 316 306 295 287 292 297 293 283 274 274 267 259 257 257 260 259 251 248 248 248 251 254 251 248 251 250 240 240 253 250 262 275 251 241 241 245 249 297 325 326 314 303 292 291
351 345 333 325 317 313 307 303 300 298 292 290 284 296 296 288 277 265 266 266 264 262 259 255 251 254 254 251 250 250 251 252 251 255 233 239 255 253 251 271 294 249 246 243 243 245 251 310 302 303 298 295 292 288
304 301 291 294 293 292 292 294 290 287 284 285 291 286 278 279 277 265 269 265 263 261 261 262 259 250 255 257 257 258 254 263 243 241 258 254 252 257 287 266 248 245 245 251 249 250 250 264 298 293 292 294 284 271
287 289 286 284 283 285 289 327 337 288 287 286 284 280 278 279 274 271 273 274 265 264 265 262 260 257 253 253 262 262 241 256 259 254 267 265 271 284 261 244 252 245 246 252 257 271 255 278 300 300 299 274 266 270
288 288 283 286 286 282 278 283 297 296 283 283 281 276 269 270 270 267 266 267 263 262 263 263 264 264 263 262 262 260 256 251 264 266 269 277 272 258 253 253 247 249 244 257 241 252 283 301 303 298 286 270 274 275
313 303 303 307 328 323 323 308 305 298 293 286 282 278 274 267 272 270 271 281 286 282 277 279 283 277 271 261 260 257 267 265 265 278 290 250 256 252 248 248 250 250 258 256 259 298 306 303 290 277 270 272 282 297
306 305 303 300 297 295 250 290 291 292 291 291 289 290 288 279 279 279 277 276 276 268 265 261 261 258 262 268 272 265 258 269 282 285 261 248 249 250 250 253 257 263 255 262 302 307 269 266 268 268 287 284 282 277
235 237 232 234 236 273 285 243 238 236 238 277 276 279 240 235 235 238 244 259 257 246 244 267 263 259 252 249 252 275 277 267 270 274 272 268 256 254 260 263 264 257 264 307 309 275 277 279 281 280 274 274 280 287
265 266 263 265 261 259 250 261 263 247 238 241 240 244 250 257 259 262 266 270 268 273 249 250 266 257 254 270 302 261 257 256 258 264 263 263 264 267 274 259 262 270 268 273 277 284 283 274 269 275 284 288 295 302

GFSWCAN_2pvu_pres_303.txt.gz
Presure
215 209 213 223 215 238 141 235 231 241 285 265 234 256 239 246 262 268 266 263 263 224 261 291 287 272 243 245 249 249 244 239 232 228 237 255 326 303 416 425 426 417 422 407 411 400 405 405 416 433 434 422 410 401
231 215 215 243 125 240 239 246 240 270 237 270 247 293 290 298 302 283 284 269 287 275 284 252 254 240 250 242 233 243 236 232 231 234 241 330 302 415 401 380 376 371 375 352 352 345 340 335 342 350 364 381 391 399
232 228 246 238 233 248 253 286 229 239 317 301 277 282 275 268 256 259 262 252 253 248 265 255 248 253 240 236 241 233 235 231 234 239 268 305 395 382 388 368 350 342 331 328 321 328 333 331 323 322 330 343 348 356
246 247 245 251 256 282 251 245 274 296 283 272 267 256 249 253 251 248 243 243 248 238 235 242 246 239 237 234 230 239 236 226 247 263 306 387 361 360 341 336 335 328 325 330 326 336 344 348 357 353 351 360 345 321
251 253 252 165 249 256 241 206 282 280 265 252 245 238 235 237 240 236 239 243 238 238 230 236 245 242 235 228 229 229 236 253 313 310 378 355 344 335 331 327 319 325 334 341 357 339 331 317 311 305 294 286 280 272
259 240 250 249 242 288 282 280 265 259 244 240 246 267 355 350 482 472 453 426 412 238 233 229 253 252 237 237 236 243 248 324 309 303 346 339 333 336 317 318 328 338 320 306 297 285 281 271 271 262 259 258 260 257
234 258 249 282 288 281 268 255 253 250 253 283 340 335 328 325 413 446 425 413 401 399 388 374 302 256 252 249 241 262 324 307 292 356 336 327 324 314 315 319 315 296 284 276 270 268 260 258 256 257 254 252 252 251
240 266 254 287 275 256 252 243 245 301 327 322 318 313 311 313 420 421 407 393 385 381 368 368 350 379 347 326 324 319 307 290 346 332 322 319 305 312 302 287 280 273 270 264 260 259 256 252 248 249 243 248 243 272
289 277 282 271 251 243 257 320 320 310 310 310 312 302 306 310 421 406 393 379 374 365 351 356 362 339 323 312 308 302 285 347 332 315 326 298 298 286 276 276 260 262 259 256 250 250 248 249 242 241 236 244 270 262
289 280 257 245 251 322 333 325 317 312 313 315 309 302 298 353 419 390 377 369 362 340 354 342 322 308 305 301 290 287 346 334 307 314 302 287 275 276 269 258 259 259 250 247 247 248 245 245 232 247 268 270 256 251
275 247 260 311 341 356 388 461 465 434 384 362 352 299 299 402 386 370 362 353 348 341 318 305 298 292 291 283 293 335 324 314 306 314 284 282 280 267 258 262 256 252 248 238 247 249 245 245 255 269 261 255 250 270
251 322 349 384 446 437 443 446 444 414 372 345 338 296 394 381 372 354 353 354 315 301 294 289 284 281 276 271 337 320 305 301 300 297 282 272 264 262 254 250 237 247 248 247 239 249 258 263 253 264 269 274 285 260
356 504 481 452 437 433 432 460 423 388 346 337 291 300 384 355 353 361 316 305 295 288 281 279 273 268 327 342 315 306 298 295 298 282 276 264 259 266 255 253 243 246 247 245 256 260 255 266 273 280 271 270 271 275
526 502 508 468 434 434 419 439 393 353 338 307 299 364 363 363 315 306 298 289 284 279 270 267 272 339 328 322 301 295 286 298 284 275 271 261 254 258 259 243 248 242 248 257 250 253 257 240 224 234 235 254 251 250
505 479 472 456 434 417 436 410 356 336 310 295 374 350 312 306 304 291 282 276 268 267 274 333 350 334 325 305 299 287 285 290 278 269 264 266 253 245 246 250 242 248 261 251 249 251 256 255 234 236 245 259 267 277
487 465 458 431 413 409 421 362 334 312 283 342 312 311 312 293 277 271 266 265 270 352 365 347 339 319 321 300 292 282 278 288 273 264 259 253 253 256 246 246 264 260 246 245 247 254 253 247 247 243 252 270 277 283
488 460 438 415 400 413 367 333 316 286 318 313 310 306 275 272 264 265 286 297 395 364 336 341 328 304 326 297 288 279 290 284 274 258 262 257 245 247 256 255 260 260 244 246 249 259 250 237 241 253 262 273 286 254
461 445 411 393 400 347 325 319 295 282 312 306 283 272 269 266 261 299 331 373 359 337 342 328 302 314 318 298 283 281 273 283 268 260 259 248 250 253 257 259 245 243 245 247 257 249 238 239 243 260 273 270 252 249
403 389 386 394 365 331 324 308 280 283 280 276 272 268 262 260 296 372 363 350 345 352 314 305 313 316 309 300 281 279 272 271 279 270 264 254 265 255 262 247 241 247 243 251 255 255 241 244 271 272 252 248 253 267
388 387 384 390 329 325 316 285 277 272 267 265 266 260 264 294 361 353 345 325 311 305 296 299 291 295 295 300 300 281 280 276 269 258 256 262 258 266 249 251 240 246 252 252 252 239 252 274 256 247 246 258 276 290
391 385 402 371 320 314 303 291 276 272 271 267 267 270 295 318 344 332 297 296 297 292 297 292 274 268 294 296 299 301 301 294 283 273 268 262 268 254 256 239 242 253 247 243 239 256 274 250 242 245 245 254 300 323
391 383 386 337 309 307 304 294 285 280 282 280 286 300 318 337 302 295 288 293 297 300 294 290 286 289 287 282 281 281 287 293 299 299 236 246 245 244 245 244 254 246 238 246 255 270 258 240 240 240 246 250 324 300
374 367 360 351 312 304 283 297 296 295 292 295 303 343 327 304 293 289 292 300 293 289 286 285 278 273 262 260 252 258 257 256 253 253 247 246 249 254 254 254 236 246 247 253 270 278 246 242 244 244 251 248 270 296
354 352 349 344 319 308 305 298 298 303 309 345 334 321 301 290 284 293 288 287 283 283 277 271 267 261 258 253 248 245 250 250 253 254 254 252 252 255 238 242 252 249 253 269 286 249 240 244 245 249 265 258 278 300
341 339 337 334 326 328 332 361 347 339 335 320 302 291 282 284 292 284 277 277 273 270 263 260 254 259 260 251 250 249 249 250 249 248 253 257 255 235 250 249 251 257 264 284 248 249 247 240 247 254 255 271 297 302
323 321 320 315 312 310 307 305 304 302 298 293 285 283 294 295 286 274 272 275 269 268 263 259 258 255 251 253 256 256 255 255 255 258 261 261 256 249 265 261 265 262 273 277 248 247 246 240 250 257 254 300 304 297
296 296 297 292 288 290 314 295 292 290 285 281 299 296 287 283 279 276 269 272 270 266 264 264 261 262 261 259 257 256 257 259 261 253 259 248 249 259 258 264 269 275 272 259 252 244 248 251 260 254 266 306 264 265
290 293 287 283 285 286 284 325 296 289 287 283 288 285 282 280 278 276 276 269 265 273 274 267 265 266 266 266 266 268 267 268 249 244 251 260 258 257 255 263 281 273 252 250 248 247 252 259 260 261 265 309 271 275
292 289 286 283 289 288 285 281 294 306 293 289 287 284 278 275 272 271 269 268 268 269 271 274 275 275 275 277 280 283 279 266 250 257 265 262 256 260 275 282 267 272 254 248 252 256 262 269 263 266 267 269 276 283
330 296 316 317 303 314 317 313 305 295 294 290 284 279 281 278 279 276 275 276 279 280 279 262 282 269 277 247 247 255 253 255 258 255 249 253 268 284 263 262 266 271 268 266 262 268 274 267 276 267 272 278 273 264
283 293 302 260 232 247 262 232 235 296 238 238 236 255 261 240 250 240 239 239 239 243 249 256 257 258 260 262 261 261 263 277 254 254 255 285 302 260 261 263 264 265 266 274 275 258 276 271 268 272 273 263 276 281
278 279 279 272 274 252 261 279 274 246 250 240 235 235 236 236 241 245 250 259 268 265 264 268 278 281 253 252 252 253 253 259 263 266 308 305 267 262 262 267 271 279 273 259 283 271 269 271 274 266 278 284 285 289
291 299 291 294 288 285 282 276 268 267 257 259 258 261 267 258 260 265 270 270 260 255 264 274 273 270 268 268 277 278 280 286 285 284 280 277 280 283 283 274 258 278 277 269 272 274 273 274 281 284 288 293 301 310